Tracking 19562 objects as of 23-Mar-2019
HD Live streaming from Space Station
objects crossing your sky now

FLOCK 3K 11

Track FLOCK 3K 11 now!
10-day predictions
FLOCK 3K 11 is classified as:


NORAD ID: 43904
Int'l Code: 2018-111AE
Perigee: 485.9 km
Apogee: 514.9 km
Inclination: 97.3 °
Period: 94.5 minutes
Semi major axis: 6871 km
RCS: Unknown
Launch date: December 27, 2018
Source: United States (US)
Launch site: VOSTOCHNY COSMODROME (VOSTO)
aabbcc
Your satellite tracking list
Your tracking list is empty




NASA's NSSDC Master Catalog

Two Line Element Set (TLE):
1 43904U 18111AE  19082.16526010  .00002576  00000-0  10810-3 0  9996
2 43904  97.2961 349.7658 0021123 304.2807  55.6431 15.24180121 13116
Source of the keplerian elements: AFSPC